Find Starlink 1153

NORAD ID: 45080 Int'l Des: 2020-006 Owner: SPXS Country: US Constellation: starlink operational
LEOCIRCULAR

リアルタイム位置

3D地球を読み込み中...

Starlink 1153について

説明を読み込み中...

次回通過

Passes for default location (London). Set your location on the main map for personalized predictions.

高度履歴

Loading altitude history...

軌道要素

1 45080U 20006AN 26126.35235906 .00042302 00000-0 12460-2 0 9991
2 45080 53.1605 349.2457 0003826 170.0477 190.0602 15.34650027345719
Epoch: May 6, 2026 • Age: 14 hours

現在のステータス

高度 480.8 km
速度 7.62 km/s
衛星直下点 -53.21°S, 64.61°E
打ち上げ日 Jan 29, 2020
運用期間 6.2 years
タイプ internet

技術仕様

分類 Payload
質量 260.00 kg
乾燥質量 248.00 kg
総質量 260.00 kg
長さ 0.20 m
直径 2.80 m
スパン 9.00 m
形状 Box + pan
製造者 SPXS
バスタイプ Starlink
フェーズステータス In Orbit
所有者/国 SPXS/US

Most Searched